Hourly Weather Roundup
Issued by NWS Central Illinois

Home | Current Version | Previous Version | Text Only | Print | Product List | Glossary On
Versions: 1 2 3 4 5 6 7 8 9 10 11 12 13 14 15 16 17 18 19 20 21 22 23 24 25 26 27 28 29 30 31 32 33 34 35 36 37 38 39 40 41 42 43 44 45 46 47 48 49 50
000
NZUS43 KILX 182310
HWRILX

Area Weather Roundup
National Weather Service Lincoln IL
500 PM CST SUN FEB 18 2018

NOTE:  "FAIR" indicates few or no clouds below 12,000 feet, with
       no sigificant weather and/or obstructions to visibility.


CITY           SKY/WX    TMP DP  RH WIND       PRES   REMARKS
Bloomington    FAIR      42  33  70 S20       30.00F WCI  33
Champaign      FAIR      43  34  70 SE13      30.05F
Danville       FAIR      42  31  64 SE9       30.05F
Decatur        FAIR      45  33  63 S17       30.03F
Effingham      FAIR      47  35  60 SE12G17   30.09S
Flora          FAIR      48  36  62 SE12      30.09F
Galesburg      FAIR      44  32  63 SE13G21   29.88F
Jacksonville   CLOUDY    47  31  53 SE17G23   29.93F
Lacon          FAIR      43  33  68 S17       29.94F
Lawrenceville  FAIR      48  36  63 S9        30.12F
Litchfield     CLOUDY    47  32  57 SE10      29.99F
$$


CITY           SKY/WX    TMP DP  RH WIND       PRES   REMARKS
Lincoln        FAIR      44  36  72 S16       29.99F
Macomb         CLOUDY    46  32  59 S23G29    29.90F
Mattoon        FAIR      46  33  60 S14       30.05F
Mt Carmel AP   FAIR      48  33  57 S9        30.11F
Olney-Noble AP FAIR      47  31  54 SE12G18   30.10F
Paris AP       FAIR      44  35  71 SE10      30.09F
Peoria         FAIR      46  33  60 S22G31    29.95F
Pontiac        FAIR      41  37  86 SE14      30.00F WCI  34
Rantoul        FAIR      43  36  74 SE12      30.06F
Robinson       FAIR      47  33  57 SE8       30.12S
Springfield    FAIR      48  32  53 S15G28    29.98F
Taylorville    FAIR      45  34  65 SE15      30.01F
$$

...REGIONAL REPORTS...


CITY           SKY/WX    TMP DP  RH WIND       PRES   REMARKS
Chicago O`Hare CLOUDY    37  27  67 S15       30.02F WCI  28
Kankakee       FAIR      38  32  80 SE10      30.06F WCI  30
Moline         FAIR      44  31  60 SE17G24   29.85F
Mount Sterling CLOUDY    46  29  51 SE16      29.88F
Mount Vernon   FAIR      48  36  63 VRB6      30.07F
Pittsfield     CLOUDY    48  31  51 SE15G22   29.91F
Quincy         PTCLDY    48  28  46 S16G26    29.86F
Rockford       CLOUDY    35  29  78 S17G26    29.95F WCI  25
$$


CITY           SKY/WX    TMP DP  RH WIND       PRES   REMARKS
Burlington     CLEAR     47  28  47 S14G28    29.83F
Cedar Rapids   FAIR      44  30  57 S17G29    29.74F
Des Moines     CLOUDY    51  28  41 S13G23    29.66R
Kirksville     CLEAR     52  30  43 S18G28    29.78F
Ottumwa        CLEAR     51  28  41 S25G35    29.71F
St Louis       CLOUDY    51  29  42 SE15G25   29.96F
$$


CITY           SKY/WX    TMP DP  RH WIND       PRES   REMARKS
Terre Haute    FAIR      47  34  60 SE9       30.10F
Evansville     FAIR      50  34  54 SE8       30.12F
Indianapolis   CLOUDY    45  30  55 SE12      30.14F
Lafayette      FAIR      42  32  67 SE13      30.10F
Madison        MOCLDY    33  25  72 S17G28    29.87F WCI  22
Milwaukee      MOCLDY    33  27  78 S21G28    29.97F WCI  21
$$






USA.gov is the U.S. government's official web portal to all federal, state and local government web resources and services.